Home > Time Zones > World Clock > Weather > U.S.A. > Gary > Past weeks

Flag for U.S.A. Weather past 2 weeks in Gary, Indiana, U.S.A.

Now
54 °F

Sunny.


Feels Like: 51 °F
Forecast: 50 / 70 °F
Wind: 8 mph from Southeast

Location: Lansing Municipal Airport

Current Time: Oct 1, 2014 at 9:25:05 AM

Latest Report: Oct 1, 2014 at 8:55 AM


Visibility: 10 mi

Pressure: 30.03 "Hg

Humidity: 86%

Dew point: 49 °F

Location of GaryLocation

Historic Weather in Gary — Graph

°F

Gary temperature yesterday

Maximum temperature yesterday: 58 °F (at 1:55 PM)
Minimum temperature yesterday: 50 °F (at 11:55 PM)
Average temperature yesterday: 55 °F

Past Weeks' High & Low Weather Summary

 TemperatureHumidityPressure
High82 °F (Sep 29, 3:35 PM)100% (Sep 17, 5:15 AM)30.38 "Hg (Sep 17, 5:15 AM)
Low42 °F (Sep 17, 6:15 AM)38% (Sep 19, 2:55 PM)29.72 "Hg (Sep 21, 12:55 AM)
Average60 °F76%30.13 "Hg
* Reported Sep 16 8:15 AM — Oct 1 8:35 AM, Gary, Weather by CustomWeather, © 2014

Note: Actual official high and low records may vary slightly from our data, if they occured in-between our weather recording intervals... More about our weather records

Advertising

Gary weather history for previous 24 hours

 ConditionsComfort  
Time TempWeatherWind HumidityBarometerVisibility
8:35 AM
Oct 1
51 °FSunny.7 mph90%30.03 "Hg10 mi
8:15 AM50 °FSunny.7 mph91%30.02 "Hg10 mi
7:55 AM48 °FSunny.5 mph95%30.02 "Hg10 mi
7:35 AM46 °FSunny.No wind97%30.02 "Hg10 mi
7:15 AM45 °FSunny.5 mph97%30.02 "Hg10 mi
6:55 AM44 °FSunny.5 mph98%30.02 "Hg10 mi
6:35 AM43 °FClear.3 mph98%30.02 "Hg7 mi
6:15 AM43 °FClear.No wind98%30.02 "Hg7 mi
5:55 AM43 °FFog.No wind97%30.01 "Hg3 mi
5:35 AM44 °FClear.No wind96%30.01 "Hg10 mi
5:15 AM46 °FClear.3 mph98%30.00 "Hg10 mi
4:55 AM44 °FClear.3 mph99%30.01 "Hg7 mi
4:35 AM43 °FClear.No wind97%30.01 "Hg10 mi
4:15 AM43 °FClear.No wind96%30.01 "Hg7 mi
3:55 AM46 °FClear.No wind95%30.01 "Hg10 mi
3:35 AM45 °FClear.No wind94%30.01 "Hg10 mi
3:15 AM48 °FClear.No wind90%30.01 "Hg10 mi
2:55 AM48 °FClear.3 mph89%30.01 "Hg10 mi
2:35 AM49 °FClear.3 mph87%30.01 "Hg10 mi
1:55 AM49 °FClear.3 mph88%30.02 "Hg10 mi
1:35 AM50 °FPassing clouds.3 mph84%30.02 "Hg10 mi
12:55 AM51 °FPassing clouds.No wind84%30.02 "Hg10 mi
12:35 AM51 °FOvercast.6 mph83%30.02 "Hg10 mi
12:15 AM51 °FOvercast.7 mph83%30.02 "Hg10 mi
11:55 PM
Sep 30
50 °FOvercast.7 mph86%30.02 "Hg10 mi
11:35 PM50 °FOvercast.5 mph85%30.03 "Hg10 mi
11:15 PM51 °FPassing clouds.3 mph84%30.03 "Hg10 mi
10:55 PM51 °FPassing clouds.5 mph82%30.03 "Hg10 mi
10:35 PM53 °FPassing clouds.5 mph79%30.03 "Hg10 mi
10:15 PM54 °FOvercast.3 mph76%30.03 "Hg10 mi
9:55 PM55 °FOvercast.7 mph73%30.03 "Hg10 mi
9:35 PM55 °FOvercast.6 mph73%30.02 "Hg10 mi
9:15 PM55 °FOvercast.8 mph73%30.02 "Hg10 mi
8:55 PM55 °FOvercast.6 mph74%30.02 "Hg10 mi
8:35 PM55 °FOvercast.7 mph75%30.02 "Hg10 mi
8:15 PM56 °FOvercast.7 mph75%30.01 "Hg10 mi
7:55 PM56 °FOvercast.5 mph76%30.01 "Hg10 mi
7:35 PM56 °FOvercast.7 mph74%30.00 "Hg10 mi
7:15 PM56 °FOvercast.5 mph73%30.00 "Hg10 mi
6:55 PM55 °FOvercast.7 mph75%30.00 "Hg10 mi
6:35 PM55 °FOvercast.8 mph77%30.01 "Hg10 mi
6:15 PM56 °FOvercast.7 mph74%30.01 "Hg10 mi
5:55 PM56 °FOvercast.7 mph74%30.01 "Hg10 mi
5:35 PM56 °FOvercast.6 mph74%30.00 "Hg10 mi
5:15 PM55 °FOvercast.7 mph79%30.01 "Hg10 mi
4:55 PM56 °FMostly cloudy.6 mph77%30.00 "Hg10 mi
4:35 PM56 °FMore clouds than sun.13 mph76%30.00 "Hg10 mi
4:15 PM57 °FBroken clouds.15 mph76%29.99 "Hg10 mi
3:35 PM56 °FMostly cloudy.9 mph77%30.01 "Hg10 mi
3:15 PM57 °FMostly cloudy.8 mph76%30.01 "Hg10 mi
2:55 PM57 °FMostly cloudy.10 mph75%30.02 "Hg10 mi
2:35 PM57 °FOvercast.12 mph73%30.01 "Hg10 mi
2:15 PM56 °FMore clouds than sun.No wind76%30.02 "Hg10 mi
1:55 PM58 °FOvercast.12 mph68%30.02 "Hg10 mi
1:35 PM58 °FOvercast.9 mph70%30.02 "Hg10 mi
12:55 PM58 °FPartly sunny.9 mph71%30.03 "Hg10 mi
12:35 PM57 °FOvercast.9 mph76%30.03 "Hg10 mi
12:15 PM56 °FMore clouds than sun.12 mph78%30.04 "Hg10 mi
11:55 AM54 °FMostly cloudy.8 mph83%30.04 "Hg10 mi
11:35 AM55 °FMostly cloudy.10 mph80%30.04 "Hg10 mi
11:15 AM54 °FOvercast.8 mph80%30.05 "Hg10 mi
10:55 AM55 °FMostly cloudy.8 mph79%30.04 "Hg10 mi
10:35 AM55 °FOvercast.9 mph82%30.04 "Hg10 mi
10:15 AM54 °FMostly cloudy.10 mph83%30.04 "Hg10 mi
9:55 AM54 °FOvercast.9 mph82%30.04 "Hg10 mi
9:35 AM55 °FOvercast.7 mph78%30.04 "Hg10 mi
9:15 AM54 °FMostly cloudy.12 mph79%30.03 "Hg10 mi
Weather by CustomWeather, © 2014

See weather overviewHow to use our weather pages